Wind_Speed
35 37 43 42 39 33 28 24 21 20 19 15 10 4 3 5 6 13 19 23 29 36 40 40 37 37 38 34 41 40 35 27 26 27 28 28 27 27 27 27 26 27 27 26 23
39 38 42 45 43 38 33 28 23 22 20 18 14 9 6 6 7 13 12 23 28 33 32 37 36 36 31 33 36 35 29 27 29 27 24 23 26 28 27 26 28 27 26 24 23
40 39 41 45 46 42 38 32 27 24 22 19 18 13 10 8 9 8 12 17 24 27 25 32 34 30 30 26 28 27 28 25 25 25 22 23 21 27 27 24 22 25 23 23 18
42 40 39 41 45 46 43 37 32 28 25 21 18 16 13 11 8 10 9 17 19 23 22 26 27 24 23 24 22 21 20 22 21 18 16 17 17 15 17 18 18 21 22 23 23
44 42 41 40 41 47 46 42 37 33 30 26 22 18 16 13 13 13 12 13 19 19 21 23 17 18 17 19 18 16 12 14 16 15 13 13 12 11 12 14 17 21 20 21 21
45 43 42 41 41 43 46 45 42 37 33 30 26 23 19 14 15 17 15 14 16 20 21 12 19 14 16 12 16 14 8 8 8 10 12 8 6 6 6 9 12 16 14 16 19
45 43 41 41 40 42 41 45 45 41 37 34 31 26 24 18 23 20 17 15 18 18 18 19 15 15 15 14 14 12 11 11 11 11 8 5 5 4 2 2 6 9 11 11 13
45 44 43 42 41 42 41 43 46 46 42 38 34 31 28 25 23 26 19 17 17 18 19 21 20 18 9 14 6 5 10 12 13 12 10 7 8 8 7 5 6 5 8 9 10
44 43 42 41 42 41 42 41 43 45 46 44 40 36 32 30 28 30 25 26 24 20 22 24 21 16 9 3 12 10 9 9 20 11 9 12 15 15 14 13 12 11 10 10 12
41 40 41 41 42 42 42 41 40 42 45 46 44 42 39 35 32 32 31 30 32 27 26 28 25 24 17 16 19 16 5 19 20 12 13 18 20 21 22 20 17 15 15 15 16
33 36 40 40 40 42 41 42 42 41 42 47 47 47 44 41 37 35 36 36 35 40 38 24 25 30 30 31 30 24 27 12 32 23 25 27 25 27 27 25 21 19 19 18 18
27 29 32 35 38 39 41 41 42 43 42 42 46 47 49 47 45 42 38 40 41 42 41 34 34 32 29 32 33 31 38 41 28 23 26 28 32 31 35 32 29 26 26 23 21
20 24 28 33 35 38 39 42 42 43 44 44 44 45 46 48 48 49 48 44 43 44 47 47 44 44 43 42 39 40 34 44 40 28 24 20 26 31 32 35 34 33 32 27 24
16 20 24 28 30 34 38 41 42 45 46 46 46 45 45 47 50 50 49 49 49 47 48 48 50 51 48 49 50 51 45 48 41 30 26 25 24 24 15 22 23 36 38 35 27
5 9 14 20 24 28 33 37 40 44 47 45 48 48 50 50 48 51 52 50 52 52 53 52 52 53 53 55 54 54 52 56 55 48 49 43 35 45 30 35 43 37 35 35 35
3 4 7 10 13 17 21 28 32 37 39 44 50 54 52 53 51 52 53 53 54 54 54 54 57 54 59 57 58 57 57 59 57 59 60 61 63 59 53 48 32 33 43 38 43
2 4 5 6 7 10 13 16 19 23 26 32 39 49 51 54 55 56 57 57 56 58 59 58 60 58 59 59 60 60 63 62 61 60 60 66 67 65 55 50 17 23 45 54 58
5 6 7 9 11 13 16 16 17 16 20 23 26 29 33 37 45 52 60 61 61 61 62 63 65 64 64 63 63 63 65 64 65 64 69 68 71 65 63 63 63 80 76 69 69
17 17 17 17 17 16 16 18 20 19 22 25 27 29 31 34 37 39 43 50 57 66 68 69 68 71 69 70 68 69 67 72 71 68 71 71 73 77 73 71 74 76 79 77 69
19 20 22 25 26 27 28 29 28 27 30 32 31 31 33 36 39 41 45 50 52 54 58 64 72 75 76 68 74 76 75 76 74 74 74 75 80 83 82 73 71 76 77 77 72
27 28 29 30 31 32 34 35 35 35 38 38 39 41 40 42 44 45 48 49 54 59 62 60 63 69 72 72 76 79 80 81 82 81 80 80 89 93 86 77 75 77 79 79 80
37 37 39 40 40 39 41 42 43 42 42 48 47 49 50 50 52 53 52 55 62 59 64 63 65 69 72 69 73 79 82 82 84 84 88 89 97 99 93 85 83 81 83 86 85
37 37 41 43 45 46 45 48 45 47 47 49 52 54 57 58 59 60 60 63 64 67 68 67 65 71 74 79 74 74 80 83 86 83 83 87 97 101 94 93 87 86 86 88 92
44 44 47 46 45 45 45 51 51 51 50 51 55 57 61 62 63 62 65 70 69 70 64 69 77 78 78 85 84 79 76 79 84 83 85 89 99 102 97 90 85 82 81 82 84
46 50 47 49 47 46 45 47 47 47 50 52 52 55 58 62 64 63 62 66 70 66 64 63 72 76 76 83 84 85 82 80 82 81 84 89 95 100 93 84 83 82 80 84 83
48 50 45 43 45 47 45 43 44 45 45 50 55 59 62 59 57 62 67 71 79 77 71 72 73 77 83 79 83 87 85 91 82 83 82 83 90 99 82 77 79 75 75 78 79
48 49 43 39 38 40 38 41 40 43 49 53 53 54 58 59 64 66 74 77 81 79 87 82 82 86 83 85 86 86 85 90 88 90 82 84 93 93 78 64 63 79 80 79 79
Wind_Direction
209 211 213 215 212 212 212 210 206 194 198 207 210 189 130 121 110 119 103 99 99 96 95 91 87 95 108 111 107 122 119 124 125 122 119 116 110 108 102 93 82 71 61 56 57
207 211 213 216 215 212 211 213 209 206 206 208 210 212 193 137 133 139 113 118 111 109 104 104 100 102 92 107 119 119 113 119 125 122 114 115 118 113 103 95 84 72 62 55 53
207 211 214 216 218 216 213 214 215 214 213 212 210 213 203 166 150 135 136 125 123 125 115 115 115 109 111 110 113 113 117 125 127 125 118 109 115 116 86 79 63 61 61 54 52
208 211 214 215 219 220 219 217 217 217 219 215 209 205 209 183 156 153 147 140 142 131 135 124 129 124 121 128 123 123 121 117 124 119 113 99 86 78 70 62 45 44 67 54 49
209 210 216 216 217 220 221 221 219 219 220 221 212 205 204 193 172 176 168 151 151 145 141 134 118 139 128 135 132 133 129 125 115 120 114 100 93 71 60 55 47 55 63 54 53
211 210 213 216 217 219 223 222 222 220 222 223 218 208 202 192 192 197 190 181 168 166 151 165 146 170 166 128 168 158 165 154 139 133 124 123 102 62 45 35 51 67 61 56 48
211 209 212 215 217 220 222 221 222 222 225 223 225 220 209 199 178 200 190 195 185 187 185 180 185 173 184 172 181 195 207 207 187 183 181 181 181 182 244 350 19 18 17 26 41
213 213 215 214 217 220 223 222 223 225 226 227 227 225 223 213 196 174 201 202 196 204 202 197 200 193 186 195 205 239 231 236 224 201 215 212 212 227 235 249 279 307 344 350 358
211 215 216 218 217 221 224 225 225 226 227 228 229 232 228 226 213 199 193 184 177 200 215 208 197 203 195 222 280 263 276 269 230 216 226 249 260 257 260 268 268 275 286 307 322
212 215 219 221 221 223 225 227 228 230 228 229 231 232 233 231 227 219 214 212 221 194 208 213 211 207 207 180 169 230 232 252 255 244 247 263 272 272 271 267 272 283 288 294 302
217 219 224 224 224 224 227 229 230 232 230 230 234 236 236 235 234 229 223 217 221 240 219 192 203 215 197 207 214 228 193 200 255 262 266 278 279 277 273 266 264 264 268 280 295
217 219 223 225 226 228 230 229 233 235 234 230 232 236 240 242 239 236 231 229 223 227 240 240 232 215 195 205 208 232 232 231 243 250 266 259 268 270 266 262 261 257 260 263 273
216 220 226 228 228 229 230 231 233 235 235 237 238 235 235 240 244 243 242 238 231 230 231 230 235 236 235 227 216 217 213 229 240 238 256 260 256 268 256 264 259 258 254 251 255
216 220 225 228 229 230 231 232 234 236 235 238 239 240 239 238 240 243 244 244 244 240 233 234 235 236 237 235 235 226 224 230 223 212 222 251 239 197 261 283 269 269 276 253 248
195 217 229 232 232 232 233 234 236 238 239 237 240 240 240 242 241 240 242 244 245 245 245 241 237 242 238 238 240 238 238 241 244 237 220 237 226 233 256 257 272 270 253 256 259
125 167 196 216 225 232 238 241 241 242 241 237 240 242 243 244 245 246 246 243 244 245 245 245 246 239 240 241 241 239 244 244 242 243 238 240 244 238 254 262 264 273 250 248 272
199 195 201 224 239 234 231 233 237 241 238 238 240 245 245 247 248 248 249 249 247 245 244 244 247 247 246 244 244 244 243 246 246 248 249 246 240 236 254 249 251 249 253 268 276
279 282 264 243 239 244 247 244 244 241 244 244 244 245 249 247 248 247 247 249 249 249 249 248 246 243 245 246 248 249 247 247 246 247 248 251 252 243 248 247 245 243 259 272 272
271 269 263 264 264 260 255 254 252 249 253 249 249 252 251 252 251 251 248 249 249 249 248 248 248 249 246 246 245 244 247 250 250 249 250 251 252 253 248 248 249 251 256 256 265
279 275 272 269 267 266 264 261 258 261 260 259 260 259 258 259 260 258 254 254 254 252 250 250 249 247 249 246 249 247 246 247 251 251 252 254 255 254 251 250 254 256 258 261 261
280 278 275 272 271 270 267 266 266 264 264 264 265 265 266 267 264 263 257 259 257 255 252 252 253 253 252 247 247 249 249 250 248 250 251 252 254 257 255 252 254 257 260 262 264
282 280 276 274 273 272 271 270 267 267 265 269 266 267 267 266 270 268 268 260 256 254 257 252 254 255 255 249 246 249 250 252 251 252 253 252 254 255 258 257 256 256 258 261 262
294 289 285 279 274 272 273 271 271 272 271 270 269 268 268 269 268 269 268 266 262 257 254 256 252 256 256 255 248 245 249 249 251 251 255 256 257 258 259 261 258 259 261 264 268
294 292 286 282 277 275 275 273 271 273 274 273 271 269 270 270 270 269 271 269 265 261 257 253 255 255 258 253 252 247 246 251 251 252 254 256 257 259 259 263 265 267 267 266 266
294 294 285 278 271 275 280 277 273 272 275 276 274 273 273 272 272 272 270 268 266 260 258 253 250 253 253 255 254 255 252 247 252 250 251 255 257 261 262 264 266 264 264 265 264
297 297 286 282 267 271 280 275 271 278 277 279 279 279 278 279 277 275 272 267 267 263 260 256 252 251 251 253 253 254 255 258 250 251 257 257 258 261 260 265 266 266 265 265 266
297 296 286 281 267 271 276 273 276 279 281 282 281 282 284 285 284 278 271 267 264 264 261 255 252 250 249 252 253 254 254 254 259 254 252 256 259 262 262 272 262 260 263 265 266
Height
10957 10962 10967 10972 10978 10983 10987 10991 10994 10998 11000 11003 11005 11009 11011 11011 11012 11013 11014 11014 11014 11013 11014 11013 11010 11006 11003 11006 11005 11013 11014 11017 11023 11021 11020 11019 11018 11018 11018 11016 11015 11014 11013 11011 11008
10953 10959 10963 10968 10974 10980 10984 10988 10992 10996 10999 11003 11005 11008 11012 11013 11014 11015 11017 11018 11018 11018 11020 11021 11023 11020 11018 11017 11018 11020 11023 11028 11028 11026 11025 11024 11023 11021 11021 11020 11019 11018 11016 11015 11013
10949 10955 10960 10965 10970 10976 10981 10986 10990 10994 10998 11001 11005 11007 11011 11014 11015 11017 11020 11021 11022 11022 11024 11025 11027 11029 11030 11031 11030 11032 11033 11034 11031 11030 11030 11030 11028 11027 11025 11024 11023 11021 11020 11019 11018
10944 10950 10956 10961 10966 10972 10978 10983 10988 10992 10995 10999 11003 11007 11010 11013 11016 11018 11021 11022 11024 11024 11026 11027 11028 11032 11030 11032 11034 11036 11035 11034 11034 11033 11032 11031 11031 11030 11028 11027 11026 11025 11024 11023 11021
10939 10946 10952 10957 10963 10968 10973 10980 10984 10989 10992 10997 11001 11005 11009 11012 11015 11017 11021 11024 11026 11026 11028 11031 11034 11032 11032 11033 11033 11035 11036 11036 11036 11035 11035 11034 11033 11033 11032 11030 11029 11029 11029 11027 11025
10934 10942 10948 10953 10959 10963 10969 10976 10980 10985 10989 10994 10998 11004 11007 11012 11014 11016 11020 11024 11027 11028 11029 11033 11037 11035 11032 11035 11033 11033 11037 11037 11037 11036 11036 11036 11035 11035 11034 11033 11032 11032 11032 11031 11029
10931 10938 10944 10950 10955 10959 10964 10970 10976 10980 10985 10990 10994 10999 11005 11009 11013 11014 11019 11022 11025 11026 11028 11030 11032 11034 11033 11033 11035 11036 11035 11036 11035 11036 11035 11036 11037 11036 11035 11035 11034 11033 11033 11032 11031
10927 10933 10940 10945 10950 10954 10958 10964 10971 10976 10980 10985 10989 10994 11000 11006 11010 11014 11016 11020 11022 11024 11027 11029 11029 11031 11036 11038 11037 11035 11033 11034 11034 11032 11034 11034 11036 11035 11035 11034 11034 11033 11033 11033 11032
10924 10930 10936 10941 10946 10951 10954 10959 10965 10971 10975 10980 10985 10989 10995 11000 11006 11011 11014 11018 11019 11021 11023 11026 11027 11029 11037 11030 11039 11035 11032 11032 11031 11031 11031 11033 11033 11034 11034 11033 11032 11032 11031 11032 11032
10921 10927 10933 10938 10943 10947 10951 10955 10960 10965 10970 10975 10979 10984 10988 10993 10999 11005 11009 11014 11013 11017 11019 11021 11024 11026 11034 11023 11020 11026 11041 11036 11031 11030 11030 11031 11031 11031 11030 11030 11030 11029 11029 11029 11030
10919 10924 10929 10934 10939 10943 10948 10951 10955 10958 10964 10969 10973 10977 10981 10986 10991 10996 11001 11007 11009 11008 11013 11017 11019 11022 11026 11027 11026 11031 11037 11004 11022 11026 11029 11030 11028 11029 11028 11027 11025 11024 11023 11024 11026
10916 10920 10925 10930 10935 10939 10943 10946 10949 10952 10956 10962 10966 10971 10974 10978 10983 10989 10993 10998 11003 11005 11005 11009 11015 11018 11021 11022 11023 11024 11024 11024 11024 11027 11029 11025 11022 11020 11022 11023 11021 11019 11019 11019 11020
10913 10917 10921 10925 10929 10933 10936 10940 10943 10946 10950 10954 10958 10962 10966 10969 10973 10978 10983 10988 10992 10998 11001 11005 11008 11008 11013 11017 11016 11015 11017 11017 11022 11027 11025 11024 11020 11012 11013 11016 11015 11014 11013 11014 11015
10911 10914 10916 10920 10923 10926 10929 10933 10936 10938 10941 10946 10950 10954 10956 10960 10963 10967 10972 10976 10981 10985 10990 10995 10998 10999 11004 11008 11010 11011 11013 11010 11014 11019 11018 11012 11012 11006 11005 11004 11010 11013 11011 11010 11011
10909 10911 10913 10915 10917 10920 10922 10925 10928 10930 10935 10941 10941 10942 10945 10950 10956 10957 10961 10965 10968 10971 10977 10980 10986 10987 10992 10992 10998 11000 11002 11000 11002 11007 11012 11007 11006 11000 11000 11002 11006 11007 11004 11004 11005
10909 10910 10911 10912 10913 10914 10916 10918 10921 10923 10928 10931 10930 10931 10937 10939 10945 10947 10950 10954 10956 10960 10963 10964 10970 10975 10973 10982 10983 10989 10988 10989 10994 10995 11000 10998 10996 10997 10995 11002 11003 11001 10993 10994 10999
10909 10910 10910 10911 10911 10911 10912 10913 10915 10915 10918 10920 10921 10921 10926 10929 10933 10937 10937 10941 10945 10947 10949 10951 10956 10958 10962 10967 10968 10975 10975 10977 10981 10982 10983 10976 10980 10991 10988 10993 11008 10977 10972 10977 10987
10909 10909 10909 10909 10909 10909 10908 10909 10910 10911 10911 10912 10913 10916 10916 10918 10920 10924 10925 10927 10930 10933 10934 10937 10940 10944 10945 10949 10952 10957 10959 10964 10965 10969 10962 10965 10962 10979 10981 10983 10988 10975 10966 10974 10975
10905 10905 10905 10904 10904 10905 10905 10905 10904 10905 10905 10905 10906 10907 10908 10908 10909 10911 10912 10911 10913 10916 10919 10919 10925 10923 10930 10935 10940 10944 10947 10943 10945 10953 10949 10954 10951 10949 10961 10963 10964 10966 10965 10968 10968
10901 10900 10899 10898 10898 10897 10897 10897 10898 10898 10897 10896 10897 10898 10898 10898 10899 10899 10901 10899 10898 10900 10901 10902 10905 10907 10910 10924 10922 10923 10926 10928 10933 10935 10936 10934 10927 10925 10935 10947 10952 10950 10947 10950 10954
10895 10894 10892 10891 10890 10889 10888 10887 10888 10888 10887 10887 10887 10886 10887 10885 10885 10885 10887 10886 10885 10884 10884 10888 10890 10889 10893 10906 10904 10903 10907 10910 10911 10914 10918 10920 10903 10894 10915 10932 10934 10933 10931 10935 10933
10885 10885 10882 10880 10879 10878 10877 10876 10875 10875 10877 10872 10874 10873 10871 10873 10869 10870 10870 10869 10865 10869 10868 10874 10873 10872 10871 10880 10885 10885 10888 10889 10892 10902 10898 10898 10881 10876 10891 10909 10913 10916 10917 10916 10920
10873 10872 10868 10866 10865 10864 10863 10861 10862 10860 10861 10860 10858 10857 10855 10854 10854 10851 10850 10846 10848 10849 10855 10856 10861 10852 10854 10851 10861 10868 10864 10869 10870 10880 10879 10877 10856 10854 10877 10879 10893 10899 10902 10901 10896
10860 10859 10855 10852 10850 10848 10849 10845 10846 10846 10844 10843 10841 10839 10837 10836 10835 10833 10831 10822 10826 10825 10837 10837 10837 10838 10838 10820 10834 10846 10853 10852 10852 10860 10863 10854 10836 10829 10850 10869 10878 10883 10884 10883 10880
10846 10843 10840 10836 10835 10832 10834 10832 10830 10830 10827 10825 10824 10820 10818 10816 10815 10814 10810 10800 10797 10806 10810 10816 10813 10815 10815 10809 10823 10820 10829 10836 10836 10840 10838 10828 10824 10815 10836 10861 10863 10862 10859 10855 10856
10831 10827 10822 10820 10818 10818 10819 10817 10815 10815 10813 10809 10806 10802 10797 10796 10794 10792 10786 10780 10767 10775 10789 10790 10793 10794 10787 10800 10799 10799 10808 10804 10819 10822 10824 10822 10806 10789 10838 10847 10843 10841 10836 10834 10836
10817 10812 10809 10805 10805 10805 10806 10803 10803 10801 10798 10794 10789 10784 10780 10775 10767 10764 10753 10750 10746 10751 10745 10761 10766 10765 10774 10773 10776 10782 10786 10784 10790 10793 10809 10807 10792 10797 10821 10821 10810 10814 10817 10816 10817